TimePST,TemperatureF,Dew PointF,Humidity,Sea Level PressureIn,VisibilityMPH,Wind Direction,Wind SpeedMPH,Gust SpeedMPH,PrecipitationIn,Events,Conditions,WindDirDegrees,DateUTC
12:53 AM,36.0,24.1,62,30.42,10.0,SE,3.5,-,N/A,,Clear,130,2013-01-15 08:53:00
1:53 AM,35.1,24.1,64,30.43,10.0,SE,3.5,-,N/A,,Clear,130,2013-01-15 09:53:00
2:53 AM,34.0,24.1,67,30.45,10.0,Calm,Calm,-,N/A,,Clear,0,2013-01-15 10:53:00
4:53 AM,33.1,24.1,70,30.43,10.0,SSE,4.6,-,N/A,,Clear,160,2013-01-15 12:53:00
5:53 AM,33.1,23.0,66,30.44,10.0,Calm,Calm,-,N/A,,Clear,0,2013-01-15 13:53:00
6:53 AM,33.1,23.0,66,30.45,10.0,SE,4.6,-,N/A,,Clear,140,2013-01-15 14:53:00
7:53 AM,34.0,24.1,67,30.46,10.0,SSE,3.5,-,N/A,,Clear,160,2013-01-15 15:53:00
8:53 AM,36.0,26.1,67,30.48,10.0,Calm,Calm,-,N/A,,Clear,0,2013-01-15 16:53:00
9:53 AM,41.0,26.1,55,30.49,10.0,Calm,Calm,-,N/A,,Clear,0,2013-01-15 17:53:00
10:53 AM,46.0,25.0,44,30.48,10.0,Calm,Calm,-,N/A,,Clear,0,2013-01-15 18:53:00
11:53 AM,48.9,24.1,38,30.46,10.0,NW,6.9,-,N/A,,Clear,320,2013-01-15 19:53:00
12:53 PM,50.0,26.1,39,30.43,10.0,Calm,Calm,-,N/A,,Clear,0,2013-01-15 20:53:00
1:53 PM,53.1,25.0,34,30.42,10.0,Variable,3.5,-,N/A,,Clear,0,2013-01-15 21:53:00
2:53 PM,53.1,25.0,34,30.41,10.0,Calm,Calm,-,N/A,,Clear,0,2013-01-15 22:53:00
3:53 PM,53.1,26.1,35,30.41,10.0,WNW,6.9,-,N/A,,Clear,300,2013-01-15 23:53:00
4:53 PM,48.9,28.0,44,30.42,10.0,WNW,8.1,-,N/A,,Clear,300,2013-01-16 00:53:00
5:53 PM,46.9,28.0,48,30.42,10.0,NW,4.6,-,N/A,,Clear,310,2013-01-16 01:53:00
6:53 PM,45.0,30.0,56,30.41,10.0,WNW,3.5,-,N/A,,Clear,290,2013-01-16 02:53:00
7:53 PM,45.0,30.9,58,30.42,10.0,WSW,3.5,-,N/A,,Clear,250,2013-01-16 03:53:00
8:53 PM,42.1,30.9,65,30.42,10.0,SSW,3.5,-,N/A,,Clear,200,2013-01-16 04:53:00
9:53 PM,42.1,30.0,62,30.42,10.0,Calm,Calm,-,N/A,,Clear,0,2013-01-16 05:53:00
10:53 PM,39.0,28.9,67,30.42,10.0,Calm,Calm,-,N/A,,Clear,0,2013-01-16 06:53:00
11:53 PM,37.4,28.4,70,30.43,10.0,Calm,Calm,-,N/A,,Clear,0,2013-01-16 07:53:00